Bookmark and Share
Track history (hours):
 

Minerva Libra

Last reported at 2014-Apr-23 19:13 UTC. Time now 2014-Apr-24 00:09 UTC.
Position N 56°14' E 018°37'.

Length 250 m; draft 8.5 m.

Type: Tanker. MMSI: 240766000.

NotesDate/timePositionNaut miles runAvg speedWind from/ knotsBaromVisibWave heightAir tempDewpointWater temp
2014-Apr-23 19:13N 56°14' E 018°37'812.2
2014-Apr-23 18:33N 56°10' E 018°25'1211.7
2014-Apr-23 17:33N 56°04' E 018°07'1110.6
2014-Apr-23 16:31N 55°58' E 017°50'1010.7
2014-Apr-23 15:33N 55°54' E 017°33'1111.0
2014-Apr-23 14:33N 55°51' E 017°14'1211.3
2014-Apr-23 13:29N 55°48' E 016°53'5110.2
2014-Apr-23 08:26N 55°37' E 015°25'9 9.5
2014-Apr-23 07:32N 55°33' E 015°11'10 9.9
2014-Apr-23 06:33N 55°29' E 014°56'1010.4
2014-Apr-23 05:33N 55°24' E 014°39'1110.8
2014-Apr-23 04:33N 55°16' E 014°27'10 9.7
2014-Apr-23 03:33N 55°11' E 014°13'10 9.6
2014-Apr-23 02:33N 55°10' E 013°56'9 9.4
2014-Apr-23 01:33N 55°11' E 013°40'1010.1
2014-Apr-23 00:33N 55°12' E 013°22'1010.3
2014-Apr-22 23:33N 55°13' E 013°04'1010.2
2014-Apr-22 22:33N 55°15' E 012°47'9 8.8
2014-Apr-22 21:33N 55°22' E 012°37'1010.5
2014-Apr-22 20:33N 55°32' E 012°42'1010.2
2014-Apr-22 19:33N 55°43' E 012°41'1313.3
2014-Apr-22 18:33N 55°56' E 012°39'1111.2
2014-Apr-22 17:33N 56°06' E 012°32'9 8.7
2014-Apr-22 16:33N 56°12' E 012°20'9 8.5
2014-Apr-22 15:33N 56°16' E 012°07'1010.1
2014-Apr-22 14:33N 56°26' E 012°00'1211.9
2014-Apr-22 13:33N 56°37' E 011°56'1211.9
2014-Apr-22 12:32N 56°49' E 011°50'1212.1
2014-Apr-22 11:30N 57°01' E 011°42'1211.6
2014-Apr-22 10:29N 57°12' E 011°35'1111.7
2014-Apr-22 09:33N 57°22' E 011°28'1111.2
2014-Apr-22 08:33N 57°31' E 011°16'1111.0
2014-Apr-22 07:33N 57°39' E 011°01'1211.6
2014-Apr-22 06:33N 57°47' E 010°45'10 9.9
2014-Apr-22 05:33N 57°48' E 010°27'1010.4
2014-Apr-22 04:33N 57°48' E 010°07'1110.5
2014-Apr-22 03:32N 57°45' E 009°48'27110.3
2014-Apr-21 01:16N 54°09' E 004°57'911.0
2014-Apr-21 00:29N 54°02' E 004°48'1411.3
2014-Apr-20 23:15N 53°52' E 004°32'1211.0
2014-Apr-20 22:09N 53°44' E 004°17'13210.1
2014-Apr-20 09:03N 51°47' E 002°36'610.6
2014-Apr-20 08:27N 51°42' E 002°29'1010.9
2014-Apr-20 07:32N 51°35' E 002°19'1111.4
2014-Apr-20 06:33N 51°26' E 002°07'1211.8
2014-Apr-20 05:33N 51°17' E 001°55'1312.6
2014-Apr-20 04:33N 51°08' E 001°42'1313.2
2014-Apr-20 03:33N 50°58' E 001°28'3611.5
2014-Apr-20 00:27N 50°29' E 000°55'1011.5
2014-Apr-19 23:33N 50°25' E 000°40'1212.0
2014-Apr-19 22:32N 50°21' E 000°22'47 9.2
2014-Apr-19 17:26N 49°44' W 000°23'1011.3
2014-Apr-19 16:33N 49°34' W 000°18'1212.3
2014-Apr-19 15:33N 49°30' W 000°00'6 5.2
2014-Apr-19 14:27N 49°28' E 000°08'0 0.0
2014-Apr-19 13:33N 49°28' E 000°08'0 0.0
2014-Apr-19 12:33N 49°28' E 000°08'0 0.0
2014-Apr-19 11:33N 49°28' E 000°08'0 0.0
2014-Apr-19 10:33N 49°28' E 000°08'0 0.0
2014-Apr-19 09:33N 49°28' E 000°08'0 0.0
2014-Apr-19 08:33N 49°28' E 000°08'0 0.0
2014-Apr-19 07:33N 49°28' E 000°08'0 0.0
2014-Apr-19 06:33N 49°28' E 000°08'0 0.0
2014-Apr-19 05:33N 49°28' E 000°08'0 0.0
2014-Apr-19 04:33N 49°28' E 000°08'0 0.0
2014-Apr-19 03:33N 49°28' E 000°08'0 0.0
2014-Apr-19 02:33N 49°28' E 000°08'0 0.0
2014-Apr-19 01:33N 49°28' E 000°08'0 0.0
2014-Apr-19 00:33N 49°28' E 000°08'0 0.0
2014-Apr-18 23:33N 49°28' E 000°08'0 0.0
2014-Apr-18 22:33N 49°28' E 000°08'0 0.0
2014-Apr-18 21:33N 49°28' E 000°08'0 0.0
2014-Apr-18 20:33N 49°28' E 000°08'0 0.0
2014-Apr-18 19:33N 49°28' E 000°08'0 0.0
2014-Apr-18 18:33N 49°28' E 000°08'0 0.0
2014-Apr-18 17:33N 49°28' E 000°08'0 0.0
2014-Apr-18 16:33N 49°28' E 000°08'0 0.0
2014-Apr-18 15:33N 49°28' E 000°08'0 0.0
2014-Apr-18 14:33N 49°28' E 000°08'0 0.0
2014-Apr-18 13:33N 49°28' E 000°08'0 0.0
2014-Apr-18 12:33N 49°28' E 000°08'0 0.0
2014-Apr-18 11:33N 49°28' E 000°08'0 0.1
2014-Apr-18 10:33N 49°28' E 000°08'3 3.5
2014-Apr-18 09:33N 49°30' E 000°03'10 9.9
2014-Apr-18 08:33N 49°34' W 000°11'5 4.5
2014-Apr-18 07:33N 49°36' W 000°17'0 0.1
2014-Apr-18 06:26N 49°36' W 000°17'0 0.1
2014-Apr-18 05:32N 49°36' W 000°17'0 0.0
2014-Apr-18 04:26N 49°36' W 000°17'0 0.0
2014-Apr-18 03:14N 49°36' W 000°17'0 0.0
2014-Apr-18 02:29N 49°36' W 000°17'0 0.1
2014-Apr-18 01:05N 49°36' W 000°17'0 0.3
2014-Apr-18 00:29N 49°36' W 000°17'0 0.1
2014-Apr-17 23:32N 49°36' W 000°17'0 0.1
2014-Apr-17 22:32N 49°36' W 000°17'5 4.8
2014-Apr-17 21:33N 49°40' W 000°21'5412.2
2014-Apr-17 17:09N 50°31' E 000°07'914.8
2014-Apr-17 16:34N 50°33' E 000°20'1414.1
2014-Apr-17 15:33N 50°38' E 000°41'1313.1
2014-Apr-17 14:33N 50°47' E 000°57'1211.5
2014-Apr-17 13:33N 50°54' E 001°11'1110.2
2014-Apr-17 12:30N 51°02' E 001°23'1111.4
2014-Apr-17 11:34N 51°08' E 001°37'1211.7
2014-Apr-17 10:34N 51°18' E 001°48'1514.6
2014-Apr-17 09:33N 51°30' E 002°01'1514.6
2014-Apr-17 08:33N 51°41' E 002°17'1413.7
2014-Apr-17 07:33N 51°51' E 002°31'6711.2
2014-Apr-17 01:33N 52°53' E 003°14'1312.7
2014-Apr-17 00:33N 53°05' E 003°20'1313.4
2014-Apr-16 23:33N 53°18' E 003°27'30912.2
2014-Apr-15 22:12N 57°32' E 008°36'3512.5
2014-Apr-15 19:23N 57°46' E 009°36'1312.4
2014-Apr-15 18:23N 57°49' E 009°59'1112.8
2014-Apr-15 17:33N 57°50' E 010°19'1312.5
2014-Apr-15 16:33N 57°50' E 010°42'9 9.3
2014-Apr-15 15:33N 57°43' E 010°55'1211.9
2014-Apr-15 14:33N 57°35' E 011°11'12 5.8
2014-Apr-15 12:34N 57°27' E 011°27'1211.6
2014-Apr-15 11:34N 57°16' E 011°34'1212.1
2014-Apr-15 10:33N 57°04' E 011°41'1212.6
2014-Apr-15 09:34N 56°53' E 011°49'1211.9
2014-Apr-15 08:33N 56°41' E 011°49'128 9.1
2014-Apr-14 18:33N 54°34' E 011°17'1211.7
2014-Apr-14 17:34N 54°29' E 011°35'1211.9
2014-Apr-14 16:34N 54°27' E 011°55'1010.4
2014-Apr-14 15:34N 54°29' E 012°13'1010.1
2014-Apr-14 14:34N 54°38' E 012°20'8 8.4
2014-Apr-14 13:33N 54°42' E 012°33'19 9.6
2014-Apr-14 11:33N 54°52' E 013°02'1312.6
2014-Apr-14 10:32N 54°56' E 013°23'1312.6
2014-Apr-14 09:33N 54°60' E 013°44'1212.5
2014-Apr-14 08:33N 55°04' E 014°04'1312.4
2014-Apr-14 07:33N 55°13' E 014°18'1312.8
2014-Apr-14 06:33N 55°23' E 014°32'1212.4
2014-Apr-14 05:33N 55°30' E 014°50'  

Dump ship's entire track history

sailing weather and tide predictions

Minerva Libra — SVAA7 — position and weather